Weather History for Ozark, AL

Change the Weather History Date:

Wednesday, September 5, 2012

  Actual Average Record
Temperature  
Mean Temperature 78 °F -  
Max Temperature 84 °F 85 °F 93 °F (1998)
Min Temperature 73 °F 66 °F 64 °F (2010)
Cooling Degree Days 14    
Growing Degree Days 28 (Base 50)    
Moisture  
Dew Point 74 °F    
Average Humidity 89    
Maximum Humidity 100    
Minimum Humidity 70    
Precipitation  
Precipitation 0.19 in - - ()
Sea Level Pressure  
Sea Level Pressure 29.89 in    
Wind  
Wind Speed 7 mph (SE)    
Max Wind Speed 15 mph    
Max Gust Speed 18 mph    
Visibility 9 miles    
Events Rain    
Averages and records for this station are not official NWS values.
T = Trace of Precipitation, MM = Missing Value Source: NWS Daily Summary

Daily Weather History Graph

Daily Weather History Graph

Search for Another Location

Airport:

Trip Planner

Search our weather history database for the weather conditions in past years. The results will help you decide how hot, cold, wet, or windy it might be!

Date:

Astronomy

Sep. 05, 2012 Rise Set
Actual Time 6:21 AM CDT 7:00 PM CDT
Civil Twilight 5:56 AM CDT 7:25 PM CDT
Nautical Twilight 5:28 AM CDT 7:54 PM CDT
Astronomical Twilight 4:58 AM CDT 8:23 PM CDT
Moon 9:54 PM CDT (9/5) 11:01 AM CDT (9/5)
Length of Visible Light 13h 28m
Length of Day
12h 39m
Waning Gibbous, 76% of the Moon is Illuminated
Sep 5
Waning Gibbous
Sep 8
Last Quarter
Sep 15
New
Sep 22
First Quarter
Sep 29
Full

Hourly Weather History & Observations

Time (CDT) Temp. Heat Index Dew Point Humidity Pressure Visibility Wind Dir Wind Speed Gust Speed Precip Events Conditions
12:55 AM 75.0 °F - 73.4 °F 95% 29.88 in 10.0 mi SE 8.1 mph - N/A   Overcast
1:55 AM 74.7 °F - 73.6 °F 96% 29.88 in 10.0 mi ESE 4.6 mph - 0.00 in   Light Drizzle
2:04 AM 75.2 °F - 73.4 °F 94% 29.88 in 10.0 mi SE 5.8 mph - N/A   Overcast
2:05 AM 75.2 °F - 73.4 °F 94% 29.88 in 10.0 mi ESE 5.8 mph - N/A   Overcast
2:27 AM 75.2 °F - 73.4 °F 94% 29.88 in 10.0 mi SSE 6.9 mph - N/A   Overcast
2:55 AM 74.5 °F - 73.0 °F 95% 29.87 in 10.0 mi SSE 6.9 mph - 0.00 in   Overcast
3:02 AM 75.2 °F - 73.4 °F 94% 29.87 in 10.0 mi SSE 6.9 mph - N/A Rain Light Rain
3:06 AM 75.2 °F - 73.4 °F 94% 29.87 in 9.0 mi SSE 8.1 mph - N/A Rain Light Rain
3:29 AM 73.4 °F - 73.4 °F 100% 29.87 in 10.0 mi SSE 12.7 mph - N/A   Light Drizzle
3:35 AM 73.4 °F - 73.4 °F 100% 29.87 in 10.0 mi SSE 11.5 mph - N/A   Light Drizzle
3:44 AM 73.4 °F - 73.4 °F 100% 29.87 in 10.0 mi SSE 10.4 mph - N/A   Overcast
3:55 AM 73.6 °F - 72.3 °F 96% 29.86 in 10.0 mi SSE 9.2 mph - 0.01 in   Mostly Cloudy
4:13 AM 73.4 °F - 71.6 °F 94% 29.86 in 10.0 mi SSE 8.1 mph - N/A   Mostly Cloudy
4:28 AM 73.4 °F - 71.6 °F 94% 29.86 in 10.0 mi SSE 8.1 mph - N/A   Overcast
4:30 AM 73.4 °F - 71.6 °F 94% 29.86 in 10.0 mi SE 8.1 mph - N/A   Mostly Cloudy
4:39 AM 73.4 °F - 71.6 °F 94% 29.86 in 10.0 mi SSE 10.4 mph - N/A   Overcast
4:55 AM 73.4 °F - 72.1 °F 96% 29.86 in 10.0 mi SSE 10.4 mph - N/A   Overcast
5:11 AM 73.4 °F - 71.6 °F 94% 29.86 in 10.0 mi SE 8.1 mph - N/A   Overcast
5:27 AM 73.4 °F - 71.6 °F 94% 29.86 in 10.0 mi SE 4.6 mph - N/A   Overcast
5:39 AM 73.4 °F - 71.6 °F 94% 29.86 in 10.0 mi SE 4.6 mph - N/A   Mostly Cloudy
5:55 AM 73.0 °F - 71.8 °F 96% 29.87 in 10.0 mi SE 4.6 mph - N/A   Overcast
6:34 AM 73.4 °F - 71.6 °F 94% 29.89 in 10.0 mi ESE 3.5 mph - N/A   Overcast
6:55 AM 73.0 °F - 72.1 °F 97% 29.90 in 10.0 mi Calm Calm - N/A   Overcast
7:10 AM 73.4 °F - 71.6 °F 94% 29.90 in 10.0 mi East 3.5 mph - N/A   Overcast
7:29 AM 73.4 °F - 71.6 °F 94% 29.90 in 10.0 mi ESE 3.5 mph - N/A   Overcast
7:38 AM 73.4 °F - 71.6 °F 94% 29.90 in 6.0 mi East 4.6 mph - N/A Rain Rain
7:49 AM 73.4 °F - 71.6 °F 94% 29.90 in 10.0 mi East 4.6 mph - N/A   Overcast
7:55 AM 73.4 °F - 72.1 °F 96% 29.90 in 10.0 mi East 3.5 mph - 0.01 in   Overcast
7:59 AM 73.4 °F - 71.6 °F 94% 29.90 in 7.0 mi East 5.8 mph - N/A   Drizzle
8:06 AM 73.4 °F - 73.4 °F 100% 29.90 in 2.5 mi ESE 4.6 mph - N/A Rain Light Rain
8:14 AM 73.4 °F - 73.4 °F 100% 29.90 in 2.5 mi Variable 3.5 mph - N/A Rain Light Rain
8:17 AM 73.4 °F - 73.4 °F 100% 29.90 in 3.0 mi East 3.5 mph - N/A Rain Light Rain
8:24 AM 73.4 °F - 73.4 °F 100% 29.90 in 10.0 mi East 3.5 mph - N/A   Overcast
8:33 AM 73.4 °F - 73.4 °F 100% 29.90 in 10.0 mi ESE 5.8 mph - N/A   Overcast
8:55 AM 75.4 °F - 73.9 °F 95% 29.90 in 10.0 mi SE 3.5 mph - 0.03 in   Overcast
9:11 AM 77.0 °F - 73.4 °F 89% 29.90 in 10.0 mi ESE 6.9 mph - N/A   Mostly Cloudy
9:25 AM 78.8 °F - 73.4 °F 83% 29.91 in 10.0 mi ESE 8.1 mph - N/A   Mostly Cloudy
9:27 AM 78.8 °F - 73.4 °F 83% 29.91 in 10.0 mi SE 6.9 mph - N/A   Mostly Cloudy
9:29 AM 78.8 °F - 73.4 °F 83% 29.91 in 10.0 mi ESE 6.9 mph - N/A   Overcast
9:55 AM 77.9 °F - 73.8 °F 87% 29.91 in 10.0 mi ESE 5.8 mph - N/A   Overcast
10:09 AM 78.8 °F - 73.4 °F 83% 29.91 in 10.0 mi ESE 5.8 mph - N/A   Overcast
10:45 AM 77.0 °F - 73.4 °F 89% 29.91 in 8.0 mi SE 6.9 mph - N/A   Light Drizzle
10:55 AM 77.0 °F - 74.1 °F 91% 29.92 in 6.0 mi ESE 4.6 mph - 0.00 in   Light Drizzle
10:57 AM 77.0 °F - 75.2 °F 94% 29.92 in 8.0 mi ESE 4.6 mph - N/A   Overcast
11:11 AM 78.8 °F - 75.2 °F 89% 29.91 in 10.0 mi SSE 5.8 mph - N/A   Overcast
11:36 AM 82.4 °F 88.2 °F 73.4 °F 74% 29.91 in 10.0 mi South 8.1 mph - N/A   Overcast
11:46 AM 84.2 °F 92.3 °F 75.2 °F 74% 29.90 in 10.0 mi Variable 4.6 mph - N/A   Overcast
11:49 AM 84.2 °F 92.3 °F 75.2 °F 74% 29.90 in 10.0 mi SSE 8.1 mph - N/A   Mostly Cloudy
11:52 AM 84.2 °F 92.3 °F 75.2 °F 74% 29.90 in 10.0 mi SSE 10.4 mph - N/A   Mostly Cloudy
11:54 AM 84.2 °F 90.9 °F 73.4 °F 70% 29.90 in 10.0 mi SSE 10.4 mph - N/A   Mostly Cloudy
11:55 AM 83.5 °F 90.3 °F 73.9 °F 73% 29.90 in 10.0 mi SSE 10.4 mph - 0.01 in   Mostly Cloudy
12:01 PM 82.4 °F 88.2 °F 73.4 °F 74% 29.91 in 10.0 mi South 9.2 mph - N/A   Overcast
12:30 PM 80.6 °F 85.4 °F 73.4 °F 79% 29.90 in 10.0 mi SSW 11.5 mph - N/A   Overcast
12:55 PM 81.9 °F 87.7 °F 74.1 °F 77% 29.90 in 10.0 mi SSW 5.8 mph - N/A   Overcast
1:27 PM 84.2 °F 92.3 °F 75.2 °F 74% 29.88 in 10.0 mi SE 9.2 mph - N/A   Overcast
1:36 PM 82.4 °F 89.5 °F 75.2 °F 79% 29.89 in 10.0 mi SSE 8.1 mph - N/A   Light Drizzle
1:49 PM 80.6 °F 86.2 °F 75.2 °F 84% 29.89 in 4.0 mi South 12.7 mph 18.4 mph N/A Rain Light Rain
1:55 PM 78.8 °F - 75.0 °F 88% 29.89 in 4.0 mi SSW 10.4 mph 18.4 mph 0.04 in Rain Light Rain
1:58 PM 78.8 °F - 75.2 °F 89% 29.89 in 6.0 mi SSW 11.5 mph - N/A Rain Light Rain
2:03 PM 78.8 °F - 75.2 °F 89% 29.89 in 9.0 mi South 12.7 mph - N/A   Overcast
2:08 PM 78.8 °F - 75.2 °F 89% 29.89 in 10.0 mi SSE 15.0 mph - N/A Rain Light Rain
2:17 PM 77.0 °F - 75.2 °F 94% 29.89 in 3.0 mi SE 10.4 mph - N/A Rain Light Rain
2:29 PM 77.0 °F - 75.2 °F 94% 29.89 in 5.0 mi SSE 6.9 mph - N/A Rain Light Rain
2:42 PM 77.0 °F - 75.2 °F 94% 29.89 in 10.0 mi SE 4.6 mph - N/A   Partly Cloudy
2:55 PM 77.9 °F - 75.2 °F 91% 29.88 in 10.0 mi SSE 5.8 mph - 0.09 in   Partly Cloudy
3:12 PM 78.8 °F - 75.2 °F 89% 29.88 in 10.0 mi SE 5.8 mph - N/A   Mostly Cloudy
3:15 PM 78.8 °F - 75.2 °F 89% 29.88 in 10.0 mi ESE 5.8 mph - N/A   Mostly Cloudy
3:19 PM 78.8 °F - 75.2 °F 89% 29.88 in 10.0 mi ESE 3.5 mph - N/A   Mostly Cloudy
3:48 PM 80.6 °F 86.2 °F 75.2 °F 84% 29.88 in 10.0 mi SSE 8.1 mph - N/A   Mostly Cloudy
3:55 PM 80.8 °F 86.7 °F 75.4 °F 84% 29.88 in 10.0 mi SSE 8.1 mph - N/A   Mostly Cloudy
4:55 PM 82.9 °F 89.9 °F 74.7 °F 76% 29.88 in 10.0 mi SSE 9.2 mph - N/A   Partly Cloudy
5:16 PM 82.4 °F 89.5 °F 75.2 °F 79% 29.87 in 10.0 mi SSE 10.4 mph - N/A   Mostly Cloudy
5:55 PM 81.1 °F 86.8 °F 74.5 °F 80% 29.88 in 10.0 mi SE 8.1 mph - N/A   Overcast
6:13 PM 80.6 °F 85.4 °F 73.4 °F 79% 29.88 in 10.0 mi SE 4.6 mph - N/A   Mostly Cloudy
6:14 PM 80.6 °F 85.4 °F 73.4 °F 79% 29.88 in 10.0 mi SE 5.8 mph - N/A   Mostly Cloudy
6:17 PM 78.8 °F - 73.4 °F 83% 29.88 in 10.0 mi SE 4.6 mph - N/A   Mostly Cloudy
6:55 PM 78.3 °F - 74.5 °F 88% 29.88 in 10.0 mi SE 3.5 mph - N/A   Mostly Cloudy
7:55 PM 76.6 °F - 73.9 °F 91% 29.89 in 10.0 mi SE 8.1 mph - N/A   Mostly Cloudy
8:55 PM 75.4 °F - 73.6 °F 94% 29.89 in 10.0 mi SSE 5.8 mph - N/A   Clear
9:55 PM 74.8 °F - 73.4 °F 95% 29.91 in 10.0 mi Calm Calm - N/A   Clear
10:55 PM 74.1 °F - 73.0 °F 96% 29.92 in 10.0 mi ESE 3.5 mph - N/A   Clear
11:55 PM 73.4 °F - 72.5 °F 97% 29.93 in 10.0 mi ESE 4.6 mph - N/A   Partly Cloudy